FW0304 Weather Reports


Display with metric or nautical units.
time (UTC)temp
F
wind
direction
speed
MPH
gust
MPH
rain 1hr
in
rain 24hr
in
rain mn
in
humidity
%
barometer
mb
20260508153015 68 137 1.0 2.0 0.00 0.02 0.01 60 1017.9
20260508151518 68 331 0.0 3.0 0.00 0.02 0.01 58 1017.7
20260508150019 67 127 1.0 4.0 0.00 0.02 0.01 61 1017.8
20260508144505 66 73 1.0 3.0 0.01 0.02 0.01 62 1017.8
20260508143010 64 165 0.0 5.0 0.01 0.02 0.01 65 1017.9
20260508140021 62 263 1.0 2.0 0.01 0.02 0.01 71 1018.1
20260508134521 61 309 0.0 5.0 0.00 0.02 0.00 76 1018.2
20260508133009 59 5 1.0 3.0 0.00 0.02 0.00 77 1018.3
20260508130017 56 9 1.0 3.0 0.00 0.02 0.00 84 1018.2
20260508124524 56 313 0.0 2.0 0.00 0.02 0.00 88 1018.2
20260508123042 54 333 0.0 1.0 0.00 0.02 0.00 93 1018.2
20260508121518 53 333 0.0 0.0 0.00 0.02 0.00 93 1018.5
20260508120017 52 333 0.0 0.0 0.00 0.02 0.00 94 1018.5
20260508114520 51 333 0.0 0.0 0.00 0.02 0.00 93 1018.2
20260508113024 51 333 0.0 0.0 0.00 0.02 0.00 93 1017.8
20260508111532 51 333 0.0 0.0 0.00 0.02 0.00 93 1017.3
20260508110014 51 333 0.0 0.0 0.00 0.02 0.00 93 1017.0
20260508104516 52 333 0.0 0.0 0.00 0.02 0.00 93 1017.1
20260508103028 52 333 0.0 0.0 0.00 0.02 0.00 93 1016.8
20260508101524 52 333 0.0 0.0 0.00 0.02 0.00 93 1016.8
20260508100009 52 333 0.0 0.0 0.00 0.02 0.00 93 1016.6
20260508094514 52 333 0.0 0.0 0.00 0.02 0.00 93 1016.8
20260508093020 52 333 0.0 0.0 0.00 0.02 0.00 93 1016.5
20260508091522 52 333 0.0 0.0 0.00 0.02 0.00 93 1016.6
20260508090044 52 333 0.0 0.0 0.00 0.02 0.00 93 1016.2
20260508084511 53 333 0.0 0.0 0.00 0.02 0.00 93 1016.0
20260508083017 53 333 0.0 0.0 0.00 0.02 0.00 93 1015.7
20260508081524 53 333 0.0 0.0 0.00 0.02 0.00 93 1015.4
20260508080004 53 333 0.0 0.0 0.00 0.02 0.00 93 1015.8
20260508074510 53 333 0.0 0.0 0.00 0.02 0.00 92 1015.7
20260508073015 53 333 0.0 1.0 0.00 0.02 0.00 93 1015.6
20260508071517 53 333 0.0 0.0 0.00 0.02 0.00 92 1015.7
20260508070008 54 333 0.0 0.0 0.00 0.02 0.00 92 1016.0
20260508064509 54 333 0.0 2.0 0.00 0.02 0.00 92 1016.2
20260508063013 54 333 0.0 0.0 0.00 0.02 0.00 92 1016.2
20260508061517 54 333 0.0 0.0 0.00 0.02 0.00 92 1016.4
20260508060007 55 333 0.0 0.0 0.00 0.02 0.00 92 1016.3
20260508054509 55 333 0.0 2.0 0.00 0.02 0.00 92 1016.5
20260508053011 55 333 0.0 0.0 0.00 0.02 0.00 91 1016.4
20260508051516 55 333 0.0 0.0 0.00 0.02 0.00 91 1016.4
20260508050020 55 333 0.0 0.0 0.00 0.02 0.00 91 1016.5
20260508044507 55 333 0.0 0.0 0.00 0.03 0.02 91 1016.5
20260508043008 55 333 0.0 0.0 0.00 0.03 0.02 90 1016.6
20260508041514 55 333 0.0 0.0 0.00 0.03 0.02 90 1016.7
20260508040018 56 333 0.0 0.0 0.00 0.03 0.02 90 1017.0
20260508034536 56 333 0.0 1.0 0.00 0.03 0.02 89 1017.0
20260508033009 56 333 0.0 0.0 0.00 0.03 0.02 89 1017.0
20260508031513 56 333 0.0 1.0 0.00 0.03 0.02 88 1016.8
20260508030018 57 333 0.0 0.0 0.00 0.03 0.02 88 1016.6
20260508024545 57 333 0.0 0.0 0.00 0.03 0.02 87 1016.6
20260508023006 58 333 0.0 0.0 0.00 0.03 0.02 86 1016.4
20260508021509 58 333 0.0 0.0 0.00 0.03 0.02 85 1016.5
20260508020014 59 333 0.0 0.0 0.00 0.03 0.02 84 1016.6
20260508014523 59 333 0.0 0.0 0.00 0.03 0.02 84 1016.1
20260508013023 60 333 0.0 0.0 0.00 0.03 0.02 84 1016.3
20260508011509 60 333 0.0 0.0 0.00 0.03 0.02 82 1016.2
20260508010016 61 333 0.0 0.0 0.00 0.03 0.02 80 1016.1
20260508004536 63 333 0.0 0.0 0.00 0.03 0.02 76 1015.9
20260508003024 64 333 0.0 0.0 0.01 0.03 0.02 75 1015.9
20260508001536 65 333 0.0 0.0 0.01 0.03 0.02 70 1015.7
20260508000011 65 333 0.0 0.0 0.01 0.03 0.02 70 1015.6
20260507234514 67 333 0.0 1.0 0.01 0.03 0.02 64 1015.6
20260507233022 68 333 0.0 2.0 0.00 0.02 0.01 63 1015.8
20260507231524 68 340 0.0 2.0 0.00 0.02 0.01 59 1015.7
20260507230008 69 299 1.0 3.0 0.00 0.02 0.01 59 1015.5
20260507224514 69 92 0.0 2.0 0.00 0.02 0.01 60 1015.4
20260507223017 69 305 0.0 2.0 0.00 0.02 0.01 60 1015.5
20260507221504 69 293 1.0 2.0 0.00 0.02 0.01 61 1015.2
20260507220011 69 324 0.0 4.0 0.00 0.02 0.01 61 1015.2
20260507214512 69 159 1.0 3.0 0.00 0.02 0.01 61 1015.3
20260507213026 68 350 0.0 2.0 0.00 0.02 0.01 64 1015.1
20260507211521 68 313 0.0 3.0 0.00 0.02 0.01 64 1015.1
20260507210005 68 126 0.0 2.0 0.00 0.02 0.01 63 1015.1
20260507204510 68 310 0.0 2.0 0.00 0.02 0.01 64 1015.1
20260507203031 68 327 1.0 3.0 0.00 0.02 0.01 61 1015.4
20260507201520 69 304 0.0 2.0 0.00 0.03 0.01 63 1015.5
20260507200020 68 285 1.0 3.0 0.00 0.03 0.01 62 1015.5
20260507194516 68 301 0.0 3.0 0.00 0.03 0.01 65 1015.7
20260507193018 68 337 1.0 3.0 0.00 0.03 0.01 64 1015.9
20260507191520 69 5 1.0 3.0 0.00 0.03 0.01 63 1015.8
20260507190022 68 341 0.0 3.0 0.00 0.03 0.01 65 1015.9
20260507184524 68 310 0.0 2.0 0.00 0.03 0.01 64 1015.7
20260507183014 68 162 0.0 2.0 0.00 0.03 0.01 66 1016.0
20260507181516 67 286 0.0 2.0 0.00 0.03 0.01 73 1016.1
20260507180023 66 288 1.0 3.0 0.00 0.03 0.01 70 1016.2
20260507174536 67 148 1.0 3.0 0.00 0.03 0.01 67 1016.4
20260507173025 66 156 1.0 3.0 0.00 0.03 0.01 68 1016.3
20260507171522 66 350 0.0 3.0 0.00 0.03 0.01 70 1016.2
20260507170019 66 125 0.0 4.0 0.00 0.03 0.01 71 1016.6
20260507164521 65 325 1.0 3.0 0.00 0.03 0.01 71 1016.8
20260507163027 64 322 1.0 2.0 0.00 0.03 0.01 75 1017.2
20260507161512 64 314 1.0 2.0 0.00 0.03 0.01 75 1017.3
20260507160021 64 319 1.0 3.0 0.00 0.03 0.01 75 1017.2